DJ6OI-23 Weather Reports


Display with metric or nautical units.
time (UTC)temp
F
wind
direction
speed
MPH
gust
MPH
rain 1hr
in
rain 24hr
in
rain mn
in
humidity
%
barometer
mb
20260906030725 48 0.0 0.0 0.00 0.00 0.00 89 1006.3
20260906025150 48 0.0 0.0 0.00 0.00 0.00 88 1006.2
20260906023615 49 0.0 0.0 0.00 0.00 0.00 87 1006.1
20260906022041 49 0.0 0.0 0.00 0.00 0.00 86 1006.2
20260906020506 50 0.0 0.0 0.00 0.00 0.00 85 1006.1
20260906014931 50 0.0 0.0 0.00 0.00 0.00 84 1005.9
20260906013356 50 0.0 0.0 0.00 0.00 0.00 83 1005.7
20260906011821 51 0.0 0.0 0.00 0.00 0.00 83 1005.6
20260906010246 51 0.0 0.0 0.00 0.00 0.00 81 1005.5
20260906004711 52 0.0 0.0 0.00 0.00 0.00 80 1005.2
20260906003136 53 0.0 0.0 0.00 0.00 0.00 80 1005.2
20260906001602 53 0.0 0.0 0.00 0.00 0.00 79 1005.2
20260906000026 53 0.0 0.0 0.00 0.00 0.00 79 1005.3
20260905234452 53 0.0 0.0 0.00 0.00 0.00 78 1005.2
20260905232916 53 0.0 0.0 0.00 0.00 0.00 78 1005.1
20260905231432 54 0.0 0.0 0.00 0.00 0.00 77 1005.3
20260905231342 54 0.0 0.0 0.00 0.00 0.00 77 1005.3
20260905225807 54 0.0 0.0 0.00 0.00 0.00 76 1005.0
20260905224233 55 0.0 0.0 0.00 0.00 0.00 75 1004.8
20260905222657 56 0.0 0.0 0.00 0.00 0.00 75 1004.6
20260905221122 56 0.0 0.0 0.00 0.00 0.00 74 1004.5
20260905215547 57 0.0 0.0 0.00 0.00 0.00 74 1004.5
20260905214012 57 0.0 0.0 0.00 0.00 0.00 73 1004.3
20260905212437 58 0.0 0.0 0.00 0.00 0.00 72 1004.2
20260905210902 58 0.0 0.0 0.00 0.00 0.00 71 1004.0
20260905205327 59 0.0 0.0 0.00 0.00 0.00 70 1003.8
20260905203753 59 0.0 0.0 0.00 0.00 0.00 70 1003.7
20260905202218 60 0.0 0.0 0.00 0.00 0.00 69 1003.6
20260905200643 60 0.0 0.0 0.00 0.00 0.00 68 1003.5
20260905195108 61 0.0 0.0 0.00 0.00 0.00 67 1003.4
20260905193533 62 0.0 0.0 0.00 0.00 0.00 66 1003.2
20260905191958 62 0.0 0.0 0.00 0.00 0.00 66 1003.2
20260905190423 62 0.0 0.0 0.00 0.00 0.00 66 1003.0
20260905184848 62 0.0 0.0 0.00 0.00 0.00 65 1002.8
20260905183313 63 0.0 0.0 0.00 0.00 0.00 65 1002.7
20260905181738 63 0.0 0.0 0.00 0.00 0.00 64 1002.4
20260905180203 63 0.0 0.0 0.00 0.00 0.00 63 1002.4
20260905174628 64 0.0 0.0 0.00 0.00 0.00 62 1002.2
20260905173053 65 0.0 0.0 0.00 0.00 0.00 60 1002.0
20260905171519 66 0.0 0.0 0.00 0.00 0.00 59 1001.8
20260905165944 68 0.0 0.0 0.00 0.00 0.00 58 1001.6
20260905164409 68 0.0 0.0 0.00 0.00 0.00 57 1001.4
20260905162834 69 0.0 0.0 0.00 0.00 0.00 57 1001.2
20260905161259 71 0.0 0.0 0.00 0.00 0.00 55 1001.0
20260905155724 72 0.0 0.0 0.00 0.00 0.00 55 1000.9
20260905154149 71 0.0 0.0 0.00 0.00 0.00 55 1000.8
20260905152614 67 0.0 0.0 0.00 0.00 0.00 58 1000.6
20260905151039 69 0.0 0.0 0.00 0.00 0.00 58 1000.4
20260905145504 72 0.0 0.0 0.00 0.00 0.00 54 1000.3
20260905143930 69 0.0 0.0 0.00 0.00 0.00 57 1000.1
20260905142355 73 0.0 0.0 0.00 0.00 0.00 53 1000.0
20260905140820 74 0.0 0.0 0.00 0.00 0.00 53 999.8
20260905133710 71 0.0 0.0 0.00 0.00 0.00 55 999.5
20260905132135 76 0.0 0.0 0.00 0.00 0.00 51 999.5
20260905130600 72 0.0 0.0 0.00 0.00 0.00 54 999.6
20260905125025 73 0.0 0.0 0.00 0.00 0.00 54 999.5
20260905123450 71 0.0 0.0 0.00 0.00 0.00 57 999.4
20260905121915 71 0.0 0.0 0.00 0.00 0.00 57 999.4
20260905120340 73 0.0 0.0 0.00 0.00 0.00 57 999.4
20260905114805 75 0.0 0.0 0.00 0.00 0.00 55 999.3
20260905113231 73 0.0 0.0 0.00 0.00 0.00 58 999.2
20260905111656 73 0.0 0.0 0.00 0.00 0.00 60 999.0
20260905110121 75 0.0 0.0 0.00 0.00 0.00 57 999.1
20260905104546 73 0.0 0.0 0.00 0.00 0.00 62 999.0
20260905103011 73 0.0 0.0 0.00 0.00 0.00 63 999.0
20260905101436 74 0.0 0.0 0.00 0.00 0.00 63 998.9
20260905095901 74 0.0 0.0 0.00 0.00 0.00 66 998.9
20260905094326 73 0.0 0.0 0.00 0.00 0.00 71 998.8
20260905092752 72 0.0 0.0 0.00 0.00 0.00 74 998.8
20260905091216 72 0.0 0.0 0.00 0.00 0.00 74 998.7
20260905085641 69 0.0 0.0 0.00 0.00 0.00 76 998.8
20260905084106 70 0.0 0.0 0.00 0.00 0.00 81 998.5
20260905082532 68 0.0 0.0 0.00 0.00 0.00 85 998.5
20260905080957 68 0.0 0.0 0.00 0.00 0.00 86 998.3
20260905075422 69 0.0 0.0 0.00 0.00 0.00 87 998.0
20260905073847 68 0.0 0.0 0.00 0.00 0.00 91 997.9
20260905072312 63 0.0 0.0 0.00 0.00 0.00 10 997.8
20260905070737 62 0.0 0.0 0.00 0.00 0.00 10 997.8
20260905065202 61 0.0 0.0 0.00 0.00 0.00 10 997.6
20260905063627 61 0.0 0.0 0.00 0.00 0.00 10 997.5
20260905062052 59 0.0 0.0 0.00 0.00 0.00 10 997.5
20260905060517 60 0.0 0.0 0.00 0.00 0.00 10 997.4
20260905054942 59 0.0 0.0 0.00 0.00 0.00 10 997.4
20260905053408 57 0.0 0.0 0.00 0.00 0.00 10 997.5
20260905051833 55 0.0 0.0 0.00 0.00 0.00 10 997.0
20260905050258 55 0.0 0.0 0.00 0.00 0.00 10 996.9
20260905044723 54 0.0 0.0 0.00 0.00 0.00 10 996.8
20260905043148 54 0.0 0.0 0.00 0.00 0.00 10 996.5
20260905041613 54 0.0 0.0 0.00 0.00 0.00 10 996.4
20260905040038 54 0.0 0.0 0.00 0.00 0.00 10 996.4
20260905034504 55 0.0 0.0 0.00 0.00 0.00 10 996.3
20260905032928 55 0.0 0.0 0.00 0.00 0.00 10 996.1